Change the Weather History Date:

Sunday, December 30, 2012

  Actual Average Record
Temperature  
Mean Temperature 25 °F 30 °F  
Max Temperature 45 °F 46 °F 79 °F (1980)
Min Temperature 4 °F 14 °F -16 °F (2014)
Degree Days  
Heating Degree Days 40 35  
Month to date heating degree days 1041 1048  
Since 1 July heating degree days 2179 2329  
Cooling Degree Days 0 0  
Month to date cooling degree days 0 0  
Year to date cooling degree days 1322 897  
Moisture  
Dew Point 1 °F    
Average Humidity 42    
Maximum Humidity 69    
Minimum Humidity 15    
Precipitation  
Precipitation 0.00 in 0.01 in 0.44 in (1896)
Month to date precipitation 0.30 0.37  
Year to date precipitation 5.00 12.56  
Snow  
Snow 0.00 in 0.10 in 6.30 in (2010)
Month to date snowfall 4.0 5.3  
Since 1 July snowfall 5.6 11.3  
Snow Depth 0.00 in    
Sea Level Pressure  
Sea Level Pressure 30.05 in    
Wind  
Wind Speed 6 mph (NE)    
Max Wind Speed 21 mph    
Max Gust Speed 23 mph    
Visibility 10 miles    
Events      
T = Trace of Precipitation, MM = Missing Value Source: NWS Daily Summary

Daily Weather History Graph

Daily Weather History Graph

Search for Another Location

Airport or City:

Trip Planner

Search our weather history database for the weather conditions in past years. The results will help you decide how hot, cold, wet, or windy it might be!

Date:

Astronomy

Dec. 30, 2012 Rise Set
Actual Time 7:14 AM MST 4:47 PM MST
Civil Twilight 6:45 AM MST 5:16 PM MST
Nautical Twilight 6:11 AM MST 5:49 PM MST
Astronomical Twilight 5:39 AM MST 6:22 PM MST
Moon 7:18 PM MST (12/30) 8:26 AM MST (12/30)
Length of Visible Light 10h 31m
Length of Day
9h 32m
Waning Gibbous, 95% of the Moon is Illuminated
Dec 30
Waning Gibbous
Jan 4
Last Quarter
Jan 11
New
Jan 18
First Quarter
Jan 26
Full

Hourly Weather History & Observations

Time (MST) Temp. Windchill Dew Point Humidity Pressure Visibility Wind Dir Wind Speed Gust Speed Precip Events Conditions
12:53 AM 8.1 °F 1.4 °F -2.0 °F 64% 29.99 in 10.0 mi WNW 3.5 mph - N/A   Clear
1:53 AM 7.0 °F 0.1 °F -2.9 °F 64% 30.00 in 10.0 mi Variable 3.5 mph - N/A   Clear
2:53 AM 8.1 °F - -2.0 °F 64% 30.01 in 10.0 mi Calm Calm - N/A   Clear
3:53 AM 6.1 °F -4.3 °F -2.0 °F 69% 30.01 in 10.0 mi NNE 5.8 mph - N/A   Clear
4:53 AM 7.0 °F 0.1 °F -2.9 °F 64% 30.04 in 10.0 mi East 3.5 mph - N/A   Clear
5:53 AM 7.0 °F - -2.0 °F 67% 30.06 in 10.0 mi Calm Calm - N/A   Clear
6:53 AM 8.1 °F - -0.9 °F 67% 30.07 in 10.0 mi Calm Calm - N/A   Clear
7:53 AM 10.9 °F 4.7 °F -0.0 °F 61% 30.08 in 10.0 mi SSE 3.5 mph - N/A   Clear
8:53 AM 23.0 °F 15.8 °F 5.0 °F 46% 30.07 in 10.0 mi East 5.8 mph - N/A   Clear
9:53 AM 30.0 °F 25.2 °F 5.0 °F 35% 30.07 in 10.0 mi ENE 4.6 mph - N/A   Clear
10:53 AM 33.1 °F 26.1 °F 6.1 °F 32% 30.05 in 10.0 mi ESE 8.1 mph - N/A   Clear
11:53 AM 37.9 °F 34.4 °F 7.0 °F 28% 30.02 in 10.0 mi East 4.6 mph - N/A   Clear
12:53 PM 41.0 °F 36.4 °F 5.0 °F 23% 30.00 in 10.0 mi East 6.9 mph - N/A   Clear
1:53 PM 44.1 °F 39.5 °F 1.9 °F 17% 29.98 in 10.0 mi East 8.1 mph - N/A   Clear
2:53 PM 43.0 °F 34.8 °F -2.9 °F 15% 29.98 in 10.0 mi East 18.4 mph - N/A   Clear
3:53 PM 41.0 °F 32.5 °F -2.9 °F 16% 30.02 in 10.0 mi East 17.3 mph - N/A   Clear
4:53 PM 34.0 °F 27.2 °F 1.9 °F 26% 30.06 in 10.0 mi ENE 8.1 mph - N/A   Clear
5:53 PM 25.0 °F 14.8 °F 1.0 °F 36% 30.10 in 10.0 mi NNE 10.4 mph - N/A   Clear
6:53 PM 23.0 °F 13.9 °F -0.0 °F 37% 30.13 in 10.0 mi NNE 8.1 mph - N/A   Clear
7:53 PM 23.0 °F 15.8 °F 1.9 °F 40% 30.13 in 10.0 mi North 5.8 mph - N/A   Clear
8:53 PM 21.9 °F 11.7 °F 1.0 °F 40% 30.10 in 10.0 mi NNE 9.2 mph - N/A   Clear
9:53 PM 16.0 °F 6.3 °F -0.9 °F 47% 30.11 in 10.0 mi North 6.9 mph - N/A   Clear
10:53 PM 17.1 °F 11.7 °F -0.9 °F 45% 30.07 in 10.0 mi WNW 3.5 mph - N/A   Clear
11:53 PM 12.0 °F 5.9 °F -2.0 °F 53% 30.07 in 10.0 mi NW 3.5 mph - N/A   Clear